Location: Vienna
(48.2082°N, 16.3738°E)
Time: 22:08:34
(UTC+02:00)

ISS - Pass Details

Date: 22 July 2018
Orbit: 402 x 408 km, 51.6° (Epoch: 20 July)

Event Time Altitude Azimuth Distance (km) Brightness Sun altitude
Rises 03:43:31 0° 289° (WNW) 2,331 -0.2 -12.4°
Reaches altitude 10° 03:45:48 10° 276° (W) 1,468 -1.3 -12.2°
Maximum altitude 03:48:35 25° 218° (SW) 856 -2.8 -11.9°
Drops below altitude 10° 03:51:21 10° 160° (SSE) 1,463 -1.3 -11.6°
Sets 03:53:38 0° 147° (SSE) 2,319 -0.1 -11.4°
